| time (UTC) | temp F | wind direction | speed MPH | gust MPH | rain 1hr in | rain 24hr in | rain mn in | humidity % | barometer mb |
| 20260831105516 | 65 | 180 | 4.0 | 9.0 | 0.00 | 0.07 | 0.07 | 77 | 1003.5 |
| 20260831104516 | 64 | 180 | 3.0 | 7.0 | 0.00 | 0.07 | 0.07 | 80 | 1003.5 |
| 20260831103516 | 64 | 135 | 3.0 | 6.0 | 0.00 | 0.07 | 0.07 | 80 | 1003.5 |
| 20260831102516 | 64 | 180 | 5.0 | 9.0 | 0.00 | 0.07 | 0.07 | 80 | 1003.5 |
| 20260831101516 | 64 | 203 | 5.0 | 8.0 | 0.00 | 0.07 | 0.07 | 80 | 1003.5 |
| 20260831100516 | 63 | 203 | 3.0 | 6.0 | 0.00 | 0.07 | 0.07 | 83 | 1003.5 |
| 20260831095536 | 63 | 158 | 3.0 | 7.0 | 0.00 | 0.07 | 0.07 | 83 | 1003.4 |
| 20260831094516 | 63 | 180 | 2.0 | 4.0 | 0.00 | 0.07 | 0.07 | 83 | 1003.4 |
| 20260831093516 | 63 | 135 | 3.0 | 7.0 | 0.00 | 0.07 | 0.07 | 82 | 1003.3 |
| 20260831092516 | 63 | 225 | 4.0 | 7.0 | 0.00 | 0.07 | 0.07 | 83 | 1003.3 |
| 20260831091516 | 62 | 203 | 2.0 | 4.0 | 0.00 | 0.07 | 0.07 | 84 | 1003.2 |
| 20260831090516 | 62 | 225 | 1.0 | 4.0 | 0.00 | 0.07 | 0.07 | 84 | 1003.3 |
| 20260831085516 | 62 | 203 | 2.0 | 4.0 | 0.00 | 0.07 | 0.07 | 85 | 1003.3 |
| 20260831084516 | 61 | 248 | 2.0 | 4.0 | 0.00 | 0.07 | 0.07 | 85 | 1003.3 |
| 20260831083516 | 61 | 203 | 3.0 | 7.0 | 0.00 | 0.07 | 0.07 | 86 | 1003.3 |
| 20260831082516 | 61 | 203 | 4.0 | 6.0 | 0.00 | 0.07 | 0.07 | 85 | 1003.2 |
| 20260831081516 | 61 | 203 | 5.0 | 9.0 | 0.00 | 0.07 | 0.07 | 84 | 1003.3 |
| 20260831080536 | 61 | 203 | 4.0 | 8.0 | 0.00 | 0.07 | 0.07 | 85 | 1003.2 |
| 20260831075516 | 61 | 203 | 5.0 | 9.0 | 0.00 | 0.07 | 0.07 | 86 | 1003.1 |
| 20260831074517 | 61 | 203 | 3.0 | 9.0 | 0.00 | 0.07 | 0.07 | 87 | 1003.1 |
| 20260831073516 | 61 | 203 | 4.0 | 9.0 | 0.00 | 0.07 | 0.07 | 89 | 1003.0 |
| 20260831072516 | 60 | 180 | 4.0 | 8.0 | 0.00 | 0.07 | 0.07 | 92 | 1002.9 |
| 20260831071516 | 59 | 203 | 3.0 | 6.0 | 0.00 | 0.07 | 0.07 | 92 | 1002.8 |
| 20260831070516 | 60 | 225 | 1.0 | 3.0 | 0.00 | 0.07 | 0.07 | 95 | 1002.7 |
| 20260831065516 | 60 | 225 | 3.0 | 5.0 | 0.00 | 0.07 | 0.07 | 95 | 1002.6 |
| 20260831064516 | 60 | 270 | 1.0 | 3.0 | 0.00 | 0.07 | 0.07 | 96 | 1002.6 |
| 20260831063536 | 60 | 225 | 1.0 | 3.0 | 0.00 | 0.07 | 0.07 | 96 | 1002.6 |
| 20260831062516 | 60 | 135 | 1.0 | 2.0 | 0.00 | 0.07 | 0.07 | 97 | 1002.6 |
| 20260831061516 | 59 | 0.0 | 1.0 | 0.00 | 0.07 | 0.07 | 97 | 1002.6 | |
| 20260831060516 | 59 | 180 | 1.0 | 2.0 | 0.00 | 0.07 | 0.07 | 97 | 1002.5 |
| 20260831055516 | 59 | 0.0 | 1.0 | 0.00 | 0.07 | 0.07 | 97 | 1002.4 | |
| 20260831054536 | 59 | 0.0 | 1.0 | 0.00 | 0.07 | 0.07 | 97 | 1002.4 | |
| 20260831053516 | 58 | 0.0 | 0.0 | 0.00 | 0.07 | 0.07 | 96 | 1002.4 | |
| 20260831052516 | 58 | 0.0 | 1.0 | 0.00 | 0.07 | 0.07 | 96 | 1002.4 | |
| 20260831051516 | 58 | 0.0 | 1.0 | 0.00 | 0.07 | 0.07 | 96 | 1002.3 | |
| 20260831050516 | 58 | 0.0 | 0.0 | 0.01 | 0.07 | 0.07 | 96 | 1002.3 | |
| 20260831045516 | 58 | 0.0 | 1.0 | 0.01 | 0.07 | 0.07 | 96 | 1002.3 | |
| 20260831044516 | 58 | 180 | 1.0 | 2.0 | 0.01 | 0.07 | 0.07 | 96 | 1002.3 |
| 20260831043516 | 57 | 0.0 | 1.0 | 0.01 | 0.07 | 0.07 | 96 | 1002.2 | |
| 20260831042516 | 57 | 0.0 | 1.0 | 0.01 | 0.07 | 0.07 | 96 | 1002.2 | |
| 20260831041516 | 57 | 0.0 | 0.0 | 0.01 | 0.07 | 0.07 | 96 | 1002.3 | |
| 20260831040516 | 57 | 0.0 | 0.0 | 0.00 | 0.06 | 0.06 | 96 | 1002.2 | |
| 20260831035536 | 57 | 0.0 | 1.0 | 0.00 | 0.06 | 0.06 | 96 | 1002.1 | |
| 20260831034516 | 57 | 0.0 | 0.0 | 0.00 | 0.06 | 0.06 | 96 | 1002.1 | |
| 20260831033516 | 57 | 0.0 | 0.0 | 0.00 | 0.06 | 0.06 | 96 | 1002.0 | |
| 20260831032516 | 57 | 0.0 | 1.0 | 0.01 | 0.06 | 0.06 | 96 | 1001.9 | |
| 20260831031516 | 57 | 0.0 | 0.0 | 0.02 | 0.06 | 0.06 | 96 | 1002.0 | |
| 20260831030516 | 57 | 0.0 | 0.0 | 0.02 | 0.06 | 0.06 | 96 | 1002.0 | |
| 20260831025536 | 57 | 0.0 | 0.0 | 0.02 | 0.06 | 0.06 | 96 | 1002.0 | |
| 20260831024516 | 57 | 0.0 | 1.0 | 0.03 | 0.06 | 0.06 | 96 | 1002.0 | |
| 20260831023516 | 57 | 0.0 | 0.0 | 0.04 | 0.06 | 0.06 | 96 | 1002.0 | |
| 20260831022516 | 57 | 0.0 | 0.0 | 0.04 | 0.06 | 0.06 | 96 | 1002.0 | |
| 20260831021536 | 57 | 0.0 | 1.0 | 0.03 | 0.05 | 0.05 | 96 | 1002.0 | |
| 20260831020536 | 57 | 0.0 | 2.0 | 0.02 | 0.04 | 0.04 | 96 | 1002.1 | |
| 20260831015516 | 57 | 0.0 | 2.0 | 0.02 | 0.04 | 0.04 | 96 | 1002.1 | |
| 20260831014516 | 57 | 180 | 1.0 | 2.0 | 0.02 | 0.03 | 0.03 | 95 | 1002.0 |
| 20260831013516 | 57 | 0.0 | 0.0 | 0.02 | 0.03 | 0.02 | 96 | 1002.0 | |
| 20260831012516 | 57 | 0.0 | 0.0 | 0.02 | 0.02 | 0.02 | 95 | 1002.0 | |
| 20260831011516 | 57 | 0.0 | 0.0 | 0.02 | 0.02 | 0.02 | 96 | 1002.1 | |
| 20260831010516 | 57 | 0.0 | 0.0 | 0.02 | 0.02 | 0.02 | 95 | 1002.1 | |
| 20260831005516 | 57 | 0.0 | 1.0 | 0.02 | 0.02 | 0.02 | 95 | 1002.1 | |
| 20260831004516 | 57 | 0.0 | 0.0 | 0.01 | 0.02 | 0.01 | 95 | 1002.2 | |
| 20260831003516 | 57 | 0.0 | 0.0 | 0.01 | 0.02 | 0.01 | 95 | 1002.2 | |
| 20260831002516 | 57 | 180 | 1.0 | 2.0 | 0.00 | 0.01 | 0.00 | 95 | 1002.2 |
| 20260831001516 | 57 | 180 | 1.0 | 2.0 | 0.00 | 0.01 | 0.00 | 95 | 1002.1 |
| 20260831000516 | 57 | 0.0 | 1.0 | 0.00 | 0.01 | 0.00 | 95 | 1002.2 | |
| 20260830235516 | 57 | 0.0 | 0.0 | 0.00 | 0.01 | 0.00 | 95 | 1002.2 | |
| 20260830234516 | 57 | 0.0 | 1.0 | 0.00 | 0.01 | 0.00 | 95 | 1002.2 | |
| 20260830233516 | 57 | 0.0 | 0.0 | 0.00 | 0.01 | 0.00 | 95 | 1002.2 | |
| 20260830232516 | 57 | 0.0 | 1.0 | 0.00 | 0.02 | 0.00 | 95 | 1002.2 | |
| 20260830231516 | 57 | 0.0 | 0.0 | 0.00 | 0.02 | 0.00 | 95 | 1002.2 | |
| 20260830230516 | 57 | 0.0 | 1.0 | 0.00 | 0.02 | 0.00 | 95 | 1002.1 | |
| 20260830225516 | 57 | 0.0 | 1.0 | 0.00 | 0.02 | 0.00 | 95 | 1002.1 | |
| 20260830224516 | 57 | 0.0 | 1.0 | 0.00 | 0.02 | 0.00 | 95 | 1002.1 | |
| 20260830223536 | 57 | 0.0 | 2.0 | 0.00 | 0.02 | 0.00 | 95 | 1002.0 | |
| 20260830222516 | 57 | 0.0 | 1.0 | 0.00 | 0.02 | 0.00 | 95 | 1002.0 | |
| 20260830221516 | 57 | 0.0 | 0.0 | 0.00 | 0.02 | 0.00 | 94 | 1002.0 | |
| 20260830220516 | 57 | 0.0 | 1.0 | 0.00 | 0.02 | 0.00 | 94 | 1002.0 | |
| 20260830215517 | 57 | 158 | 1.0 | 2.0 | 0.00 | 0.02 | 0.02 | 94 | 1001.9 |
| 20260830214517 | 57 | 0.0 | 1.0 | 0.00 | 0.02 | 0.02 | 94 | 1001.9 | |
| 20260830213517 | 57 | 0.0 | 1.0 | 0.00 | 0.02 | 0.02 | 94 | 1001.9 | |
| 20260830212518 | 57 | 0.0 | 0.0 | 0.00 | 0.02 | 0.02 | 93 | 1001.9 | |
| 20260830211517 | 57 | 158 | 1.0 | 2.0 | 0.00 | 0.02 | 0.02 | 93 | 1001.9 |
| 20260830210517 | 57 | 0.0 | 1.0 | 0.00 | 0.02 | 0.02 | 93 | 1002.0 | |
| 20260830205517 | 57 | 0.0 | 2.0 | 0.00 | 0.02 | 0.02 | 92 | 1002.0 | |
| 20260830204517 | 57 | 0.0 | 1.0 | 0.00 | 0.02 | 0.02 | 92 | 1002.0 | |
| 20260830203517 | 58 | 158 | 1.0 | 2.0 | 0.00 | 0.02 | 0.02 | 91 | 1001.9 |
| 20260830202537 | 58 | 158 | 1.0 | 2.0 | 0.00 | 0.02 | 0.02 | 91 | 1002.0 |
| 20260830201537 | 59 | 158 | 1.0 | 2.0 | 0.00 | 0.02 | 0.02 | 91 | 1002.0 |
| 20260830200517 | 59 | 158 | 1.0 | 2.0 | 0.00 | 0.02 | 0.02 | 90 | 1002.0 |
| 20260830195517 | 60 | 158 | 1.0 | 2.0 | 0.00 | 0.02 | 0.02 | 89 | 1002.0 |
| 20260830194537 | 60 | 180 | 1.0 | 2.0 | 0.00 | 0.02 | 0.02 | 89 | 1001.9 |
| 20260830193517 | 60 | 158 | 1.0 | 2.0 | 0.00 | 0.02 | 0.02 | 88 | 1001.9 |
| 20260830192517 | 61 | 113 | 1.0 | 2.0 | 0.00 | 0.02 | 0.02 | 88 | 1001.9 |
| 20260830191517 | 61 | 135 | 2.0 | 4.0 | 0.00 | 0.02 | 0.02 | 88 | 1002.0 |
| 20260830190537 | 61 | 158 | 2.0 | 4.0 | 0.00 | 0.02 | 0.02 | 88 | 1002.0 |
| 20260830185517 | 61 | 135 | 2.0 | 3.0 | 0.00 | 0.02 | 0.02 | 87 | 1001.9 |
| 20260830184517 | 61 | 135 | 2.0 | 4.0 | 0.00 | 0.02 | 0.02 | 87 | 1002.0 |
| 20260830183517 | 62 | 135 | 2.0 | 4.0 | 0.00 | 0.02 | 0.02 | 85 | 1002.0 |
| 20260830182517 | 63 | 158 | 2.0 | 4.0 | 0.00 | 0.02 | 0.02 | 84 | 1002.0 |
| 20260830181537 | 63 | 135 | 3.0 | 5.0 | 0.00 | 0.02 | 0.02 | 84 | 1001.9 |
| 20260830180517 | 63 | 135 | 3.0 | 5.0 | 0.00 | 0.02 | 0.02 | 83 | 1001.9 |
| 20260830175517 | 64 | 135 | 2.0 | 5.0 | 0.00 | 0.02 | 0.02 | 82 | 1001.9 |
| 20260830174517 | 64 | 135 | 2.0 | 5.0 | 0.00 | 0.02 | 0.02 | 81 | 1001.8 |
| 20260830173517 | 65 | 135 | 4.0 | 6.0 | 0.00 | 0.02 | 0.02 | 80 | 1001.8 |
| 20260830172537 | 65 | 135 | 4.0 | 8.0 | 0.00 | 0.02 | 0.02 | 80 | 1001.8 |
| 20260830171517 | 65 | 135 | 4.0 | 7.0 | 0.00 | 0.02 | 0.02 | 79 | 1001.7 |
| 20260830170537 | 65 | 135 | 4.0 | 8.0 | 0.00 | 0.02 | 0.02 | 78 | 1001.6 |
| 20260830165537 | 65 | 135 | 4.0 | 9.0 | 0.00 | 0.02 | 0.02 | 77 | 1001.7 |
| 20260830164517 | 66 | 135 | 5.0 | 9.0 | 0.00 | 0.02 | 0.02 | 76 | 1001.6 |
| 20260830163517 | 66 | 135 | 4.0 | 9.0 | 0.00 | 0.02 | 0.02 | 75 | 1001.6 |
| 20260830162517 | 66 | 113 | 5.0 | 8.0 | 0.00 | 0.02 | 0.02 | 75 | 1001.5 |
| 20260830161537 | 67 | 113 | 3.0 | 4.0 | 0.00 | 0.02 | 0.02 | 73 | 1001.5 |
| 20260830160517 | 67 | 203 | 2.0 | 5.0 | 0.00 | 0.02 | 0.02 | 72 | 1001.6 |
| 20260830155517 | 67 | 203 | 3.0 | 5.0 | 0.00 | 0.02 | 0.02 | 73 | 1001.7 |
| 20260830154517 | 67 | 180 | 3.0 | 8.0 | 0.00 | 0.02 | 0.02 | 73 | 1001.7 |
| 20260830153517 | 66 | 225 | 3.0 | 9.0 | 0.00 | 0.02 | 0.02 | 73 | 1001.6 |
| 20260830152517 | 66 | 135 | 3.0 | 6.0 | 0.00 | 0.02 | 0.02 | 75 | 1001.7 |
| 20260830151517 | 67 | 180 | 3.0 | 7.0 | 0.00 | 0.02 | 0.02 | 74 | 1001.8 |
| 20260830150517 | 66 | 203 | 1.0 | 3.0 | 0.00 | 0.02 | 0.02 | 75 | 1001.9 |
| 20260830145517 | 66 | 225 | 2.0 | 4.0 | 0.00 | 0.02 | 0.02 | 77 | 1001.9 |
| 20260830144517 | 66 | 180 | 3.0 | 9.0 | 0.00 | 0.02 | 0.02 | 78 | 1002.0 |
| 20260830143517 | 66 | 203 | 4.0 | 7.0 | 0.00 | 0.02 | 0.02 | 76 | 1002.1 |
| 20260830142517 | 66 | 180 | 3.0 | 9.0 | 0.00 | 0.02 | 0.02 | 78 | 1002.1 |
| 20260830141538 | 65 | 203 | 1.0 | 4.0 | 0.00 | 0.02 | 0.02 | 80 | 1002.1 |
| 20260830140537 | 65 | 180 | 1.0 | 3.0 | 0.00 | 0.02 | 0.02 | 82 | 1002.2 |
| 20260830135517 | 64 | 203 | 1.0 | 4.0 | 0.00 | 0.02 | 0.02 | 81 | 1002.1 |
| 20260830134537 | 64 | 248 | 2.0 | 4.0 | 0.00 | 0.02 | 0.02 | 81 | 1002.2 |
| 20260830133517 | 64 | 180 | 3.0 | 6.0 | 0.00 | 0.02 | 0.02 | 82 | 1002.2 |
| 20260830132517 | 63 | 248 | 1.0 | 3.0 | 0.00 | 0.02 | 0.02 | 84 | 1002.3 |
| 20260830131517 | 63 | 180 | 3.0 | 6.0 | 0.00 | 0.02 | 0.02 | 83 | 1002.2 |
| 20260830130517 | 64 | 248 | 4.0 | 8.0 | 0.00 | 0.02 | 0.02 | 82 | 1002.2 |
| 20260830125517 | 64 | 180 | 4.0 | 10.0 | 0.00 | 0.02 | 0.02 | 80 | 1002.2 |
| 20260830124537 | 64 | 203 | 5.0 | 9.0 | 0.00 | 0.02 | 0.02 | 79 | 1002.1 |
| 20260830123517 | 65 | 180 | 5.0 | 11.0 | 0.00 | 0.02 | 0.02 | 79 | 1002.1 |
| 20260830122517 | 64 | 158 | 7.0 | 12.0 | 0.00 | 0.02 | 0.02 | 80 | 1002.2 |
| 20260830121517 | 64 | 180 | 7.0 | 14.0 | 0.00 | 0.02 | 0.02 | 80 | 1002.2 |
| 20260830120517 | 63 | 180 | 5.0 | 10.0 | 0.00 | 0.02 | 0.02 | 82 | 1002.2 |
| 20260830115517 | 63 | 203 | 8.0 | 15.0 | 0.00 | 0.02 | 0.02 | 80 | 1002.3 |
| 20260830114517 | 64 | 180 | 5.0 | 11.0 | 0.00 | 0.02 | 0.02 | 80 | 1002.2 |
| 20260830113516 | 64 | 180 | 5.0 | 10.0 | 0.00 | 0.02 | 0.02 | 80 | 1002.2 |
| 20260830112537 | 64 | 180 | 9.0 | 14.0 | 0.00 | 0.02 | 0.02 | 80 | 1002.3 |
| 20260830111517 | 63 | 180 | 5.0 | 12.0 | 0.00 | 0.02 | 0.02 | 82 | 1002.2 |
| 20260830110517 | 64 | 180 | 8.0 | 19.0 | 0.00 | 0.02 | 0.02 | 82 | 1002.3 |